OneWeb SL0455

operational
NORAD ID: 51645 Int'l Des: 2022-012 Owner: ONEWEBN Country: UK Constellation: oneweb
LEOCIRCULARPOLAR

Über OneWeb SL0455

Beschreibung wird geladen...

Live-Position

3D-Globus wird geladen...

Nächste Überflüge

Höhenverlauf

Altitude vs Time

uPlot chart will show altitude changes over time

Zweizeiliger Elementsatz

1 51645U 22012Z 25308.54365255 .00000331 00000-0 13781-3 0 9991
2 51645 87.5305 335.6849 0018262 146.1729 214.0631 14.23492370194183
Epoch: 4. Nov. 2025 • Age: 11 hours

Aktueller Status

Höhe 808.7 km
Geschwindigkeit 7.46 km/s
Subsatellitenpunkt 49.35°N, 111.5°E
Startdatum 10. Feb. 2022
Alter 3.7 years
Typ internet

Technische Details

Klassifizierung Payload
Masse 148.00 kg
Trockenmasse 140.00 kg
Gesamtmasse 148.00 kg
Länge 1.30 m
Durchmesser 1.00 m
Spannweite 5.00 m
Form Trapezoid+2 pan
Hersteller ONEWUS
Bus-Typ ARROW
Phasenstatus In Orbit
Besitzer/Staat ONEWEBN/UK

Große Konstellationen

Loading constellations...